This is the latest recevied weather packets stored in our database for station/object KC8JWT. If no packets are shown the sender has not sent any weather packets the latest 10 day(s).
| Time | Temp. | Humidity | Pressure | Rain* | Wind** | Luminosity | Snow |
|---|---|---|---|---|---|---|---|
| 1777751568 | 14.44° C | 44% | 1015.5 hPa | 0 mm | - | 326 W/m² | - |
| 1777751264 | 15.56° C | 45% | 1015.5 hPa | 0 mm | - | 271 W/m² | - |
| 1777750961 | 16.11° C | 44% | 1015.3 hPa | 0 mm | - | 849 W/m² | - |
| 1777750657 | 15° C | 51% | 1015.2 hPa | 0 mm | - | 825 W/m² | - |
| 1777750355 | 13.33° C | 46% | 1015.3 hPa | 0 mm | - | 764 W/m² | - |
| 1777750054 | 13.89° C | 50% | 1015.8 hPa | 0 mm | - | 797 W/m² | - |
| 1777749752 | 13.89° C | 48% | 1015.6 hPa | 0 mm | - | 211 W/m² | - |
| 1777749449 | 13.33° C | 46% | 1015.8 hPa | 0 mm | - | 232 W/m² | - |
| 1777749147 | 13.89° C | 47% | 1015.8 hPa | 0 mm | - | 232 W/m² | - |
| 1777748844 | 13.33° C | 48% | 1015.7 hPa | 0 mm | - | 311 W/m² | - |
| 1777748541 | 12.78° C | 49% | 1015.9 hPa | 0 mm | - | 313 W/m² | - |
| 1777748241 | 12.78° C | 47% | 1015.8 hPa | 0 mm | - | 290 W/m² | - |
| 1777747938 | 13.89° C | 46% | 1015.6 hPa | 0 mm | - | 213 W/m² | - |
| 1777747634 | 13.89° C | 48% | 1015.9 hPa | 0 mm | - | 290 W/m² | - |
| 1777747329 | 15° C | 46% | 1016 hPa | 0 mm | - | 279 W/m² | - |
| 1777747027 | 15.56° C | 47% | 1015.6 hPa | 0 mm | - | 861 W/m² | - |
| 1777746722 | 15° C | 44% | 1015.9 hPa | 0 mm | - | 796 W/m² | - |
| 1777746418 | 15° C | 45% | 1016 hPa | 0 mm | - | 905 W/m² | - |
| 1777746113 | 13.89° C | 49% | 1016.1 hPa | 0 mm | - | 918 W/m² | - |
| 1777745811 | 14.44° C | 46% | 1016 hPa | 0 mm | - | 237 W/m² | - |
| 1777745510 | 15° C | 46% | 1015.9 hPa | 0 mm | - | 900 W/m² | - |
| 1777745206 | 13.89° C | 49% | 1016.1 hPa | 0 mm | - | 841 W/m² | - |
| 1777744904 | 14.44° C | 48% | 1016.4 hPa | 0 mm | - | 269 W/m² | - |
| 1777744603 | 15° C | 46% | 1015.9 hPa | 0 mm | - | 612 W/m² | - |
| 1777744299 | 15° C | 49% | 1016.3 hPa | 0 mm | - | 816 W/m² | - |
* Rain latest hour (hover to see other rain measurements)
** Current wind speed in m/s (hover to see current wind gust speed)